Regional Weather Roundup
Issued by NWS

Home | Current Version | Previous Version | Text Only | Print | Product List | Glossary Off
Versions: 1 2 3 4 5 6 7 8 9 10 11 12 13 14 15 16 17 18 19 20 21 22 23 24 25 26 27 28 29 30 31 32 33 34 35 36 37 38 39 40 41 42 43 44 45 46 47 48 49 50

113
ASUS43 KMKX 081511
RWRWI

WISCONSIN REGIONAL WEATHER ROUNDUP
NATIONAL WEATHER SERVICE MILWAUKEE/SULLIVAN WI
900 AM CST MON FEB 08 2016

NOTE: "FAIR" INDICATES FEW OR NO CLOUDS BELOW 12,000 FEET WITH NO
SIGNIFICANT WEATHER AND/OR OBSTRUCTIONS TO VISIBILITY.

WIZ001-002-006>008-014>016-023>028-081600-
NORTHWEST WISCONSIN

CITY           SKY/WX    TMP DP  RH WIND       PRES   REMARKS
SUPERIOR ARPT  FLURRIES  12   4  70 NW14G22   29.89R WCI  -4
ASHLAND        LGT SNOW  18  13  80 NW12      29.81R WCI   5
HAYWARD        LGT SNOW  12   7  80 NW9       29.80R VSB 1   WCI   0
SIREN          FLURRIES  11   4  72 N13       29.88R WCI  -4
CUMBERLAND     CLOUDY    12   5  73 NW18G26   29.81R HAZE    WCI  -5
RICE LAKE      FLURRIES  13   6  76 NW9G18    29.83R WCI   0
CHETEK         LGT SNOW  13   8  79 MISG      29.81R
LADYSMITH      LGT SNOW  15  10  79 NW14      29.76R WCI   0
EAU CLAIRE     CLOUDY    14   5  67 NW9G20    29.80R WCI   2
MENOMONIE      FLURRIES  15   8  73 NW15G21   29.82R WCI  -1
NEW RICHMOND   FLURRIES  11   4  73 NW21      29.87R WCI  -7
OSCEOLA        CLOUDY    12   4  70 NW13      29.92R WCI  -3
$$

WIZ003>005-009-010-017-018-081600-
NORTH CENTRAL WISCONSIN

CITY           SKY/WX    TMP DP  RH WIND       PRES   REMARKS
MANITOWISH WTR LGT SNOW  19  18  96 NW14      29.67R WCI   5
ARBOR VITAE    CLOUDY    22  18  86 N10       29.67R WCI  11
WOODRUFF       CLOUDY    22  18  86 N10       29.67R WCI  11
RHINELANDER    CLOUDY    20  14  77 N7        29.65R WCI  11
EAGLE RIVER    FLURRIES  19  14  81 N12G17    29.65R WCI   6
LAND O LAKES   LGT SNOW  19  15  85 N12G18    29.66R WCI   6
PHILLIPS       CLOUDY    18  15  86 N9G17     29.69R WCI   7
TOMAHAWK       CLOUDY    21  15  79 N12G25    29.67R WCI   9
MEDFORD        CLOUDY    19  15  88 NW13      29.67R WCI   5
MERRILL        CLOUDY    24  19  81 N10       29.66R WCI  13
$$

WIZ029-030-035-036-043>047-081600-
CENTRAL WISCONSIN

CITY           SKY/WX    TMP DP  RH WIND       PRES   REMARKS
WAUSAU         CLOUDY    27  19  72 NW12      29.62R WCI  17
MOSINEE        CLOUDY    23  19  86 NW3       29.64R
MARSHFIELD     CLOUDY    19  12  74 NW21      29.66R WCI   3
STEVENS POINT  CLOUDY    20  15  81 W7        29.65R WCI  11
WAUPACA        FLURRIES  26  19  74 W9G16     29.65R WCI  16
WAUTOMA        CLOUDY    22  16  78 NW14G23   29.67R WCI   9
WISC RAPIDS    CLOUDY    20  13  74 NW15G21   29.69R WCI   6
CAMP DOUGLAS   CLOUDY    19  18  93 NW14      29.71R WCI   6
$$

WIZ011>013-019>022-031-037>040-048>050-081600-
NORTHEAST WISCONSIN

CITY           SKY/WX    TMP DP  RH WIND       PRES   REMARKS
ANTIGO         CLOUDY    24  20  87 N18       29.61R WCI   9
SHAWANO        CLOUDY    32  24  73 NW6       29.62R WCI  26
OCONTO         CLOUDY    32  32 100 NW3       29.59S
STURGEON BAY   CLOUDY    34  27  75 NW5       29.60S WCI  30
GREEN BAY      CLOUDY    31  25  78 W8        29.60R WCI  23
MANITOWOC      LGT SNOW  31  28  89 NW10      29.61R FOG     WCI  22
APPLETON       CLOUDY    27  19  74 W14       29.60R WCI  15
CLINTONVILLE   CLOUDY    30  21  69 NW9       29.62R WCI  22
OSHKOSH        CLOUDY    25  18  74 W18G24    29.62R WCI  11
$$

WIZ032>034-041-042-053>061-081600-
SOUTHWEST WISCONSIN

CITY           SKY/WX    TMP DP  RH WIND       PRES   REMARKS
LA CROSSE      LGT SNOW  17  10  74 NW17      29.79R WCI   1
SPARTA         FLURRIES  18  13  80 NW10G17   29.77R WCI   6
VIROQUA        CLOUDY    16  12  83 NW17      29.71R WCI   0
BOSCOBEL       LGT SNOW  20  14  77 VRB7      29.76R WCI  11
PRAIRIE DU CHI FLURRIES  19  11  69 NW13      29.78R WCI   6
PLATTEVILLE    MOSUNNY   17  13  84 NW13      29.71S WCI   4
$$

WIZ056-057-062-063-064-067-068-081600-
SOUTH CENTRAL WISCONSIN

CITY           SKY/WX    TMP DP  RH WIND       PRES   REMARKS
REEDSBURG      CLOUDY    19  13  77 NW13      29.70R WCI   6
BARABOO/DELLS  CLOUDY    19  13  76 NW10G18   29.69R WCI   8
LONE ROCK      FLURRIES  20  12  71 NW9       29.73R WCI   9
MINERAL POINT  FLURRIES  21  16  79 NW10      29.69R WCI  10
MADISON        FLURRIES  21  15  78 NW14      29.67R WCI   8
MIDDLETON      CLOUDY    22  17  80 NW12G17   29.68R WCI  11
WATERTOWN      CLOUDY    25  21  87 NW12      29.64S WCI  14
MONROE         CLOUDY    23  19  86 NW12G18   29.66R FOG     WCI  12
JANESVILLE     CLOUDY    27  21  80 NW13      29.65R WCI  16
$$

WIZ051-052-058>065-066-070>072-081600-
SOUTHEAST WISCONSIN

CITY           SKY/WX    TMP DP  RH WIND       PRES   REMARKS
MILWAUKEE      SNOW      29  26  89 W7        29.62R VSB 1/4 WCI  22
WAUKESHA       CLOUDY    25  23  93 W10G16    29.63R VSB 1   WCI  15
MILWAUKEE/TIMM CLOUDY    28  23  80 NW9       29.63R WCI  20
RACINE         LGT SNOW  30  24  78 NW10      29.63R WCI  21
BURLINGTON     CLOUDY    28  26  93 NW8       29.63R WCI  19
KENOSHA        CLOUDY    29  26  89 W12       29.62R FOG     WCI  19
FOND DU LAC    NOT AVBL
SHEBOYGAN      CLOUDY    29  23  78 NW13      29.60R WCI  19
WEST BEND      CLOUDY    28  23  80 W13       29.61R WCI  18
JUNEAU         LGT SNOW  24  19  82 NW6       29.65R WCI  16
$$

LSZ147-162-081600-
LAKE SUPERIOR

STATION/POSITION TIME  TEMP    WIND        PRES    WAVE
                       AIR SEA DIR/SP/G            HT/PER
                 (UTC) (F)     (DEG/KT/KT) (MB)    (FT/S)
DEVILS ISLAND    1500   16     360/ 19/ 21 1011.1R
PORT WING        1400   18     320/ 15/ 19 1010.2
SAXON HARBOR     1400   21                 1008.1
$$

LMZ867-665-643>646-081600-
LAKE MICHIGAN

STATION/POSITION TIME  TEMP    WIND        PRES    WAVE
                       AIR SEA DIR/SP/G            HT/PER
                 (UTC) (F)     (DEG/KT/KT) (MB)    (FT/S)
CHAMBERS ISLAND  1400   34     300/  3/  6 1002.0S
NORTHPORT PIER   1400   34     300/  4/  6 1002.0R
ALGOMA LAKESHORE 1341          320/  5/  7   N/A
KEWAUNEE LAKESHO 1400   33     290/  6/ 10 1001.2R
SHEBOYGAN LAKESH 1500   30     310/  8/ 11 1003.5R
PORT WASHINGTON  1400   31     300/  8/ 12 1003.4R
MILWAUKEE LAKESH 1410   31     290/ 10/ 13   N/A
KENOSHA   LAKESH 1500   30     280/  7/ 12 1003.4R
$$

TC  - TEMPERATURE IN CELSIUS
VSB - VISIBILITY IN STATUTE MILES
WCI - WIND CHILL INDEX
HX  - HEAT INDEX





USA.gov is the U.S. government's official web portal to all federal, state and local government web resources and services.